Time,TemperatureF,DewpointF,PressureIn,WindDirection,WindDirectionDegrees,WindSpeedMPH,WindSpeedGustMPH,Humidity,HourlyPrecipIn,Conditions,Clouds,dailyrainin,SoftwareType,DateUTC
2013-03-16 00:02:00,66.0,57.0,30.17,NE,48,5.0,8.0,74,0.00,,,0.00,,2013-03-16 04:02:00,
2013-03-16 00:13:00,66.0,57.0,30.17,NE,48,5.0,8.0,74,0.00,,,0.00,,2013-03-16 04:13:00,
2013-03-16 00:23:00,66.0,56.0,30.17,ENE,57,5.0,9.0,71,0.00,,,0.00,,2013-03-16 04:23:00,
2013-03-16 00:33:00,67.0,57.0,30.16,NE,52,3.0,10.0,70,0.00,,,0.00,,2013-03-16 04:33:00,
2013-03-16 00:43:00,67.0,57.0,30.16,NE,52,3.0,10.0,70,0.00,,,0.00,,2013-03-16 04:43:00,
2013-03-16 00:53:00,67.0,57.0,30.16,NE,52,4.0,11.0,70,0.00,,,0.00,,2013-03-16 04:53:00,
2013-03-16 01:02:00,67.0,57.0,30.16,ENE,62,4.0,9.0,71,0.00,,,0.00,,2013-03-16 05:02:00,
2013-03-16 01:12:00,67.0,57.0,30.16,ENE,62,4.0,9.0,71,0.00,,,0.00,,2013-03-16 05:12:00,
2013-03-16 01:22:00,67.0,57.0,30.16,NE,53,4.0,8.0,71,0.00,,,0.00,,2013-03-16 05:22:00,
2013-03-16 01:32:00,66.0,56.0,30.16,NNE,33,3.0,7.0,71,0.00,,,0.00,,2013-03-16 05:32:00,
2013-03-16 01:42:00,66.0,56.0,30.16,NNE,33,3.0,7.0,71,0.00,,,0.00,,2013-03-16 05:42:00,
2013-03-16 01:53:00,65.0,56.0,30.16,NE,34,3.0,5.0,73,0.00,,,0.00,,2013-03-16 05:53:00,
2013-03-16 02:02:00,65.0,56.0,30.16,NNE,24,3.0,5.0,74,0.00,,,0.00,,2013-03-16 06:02:00,
2013-03-16 02:12:00,65.0,56.0,30.16,NNE,24,3.0,5.0,74,0.00,,,0.00,,2013-03-16 06:12:00,
2013-03-16 02:22:00,65.0,56.0,30.16,North,11,4.0,8.0,74,0.00,,,0.00,,2013-03-16 06:22:00,
2013-03-16 02:32:00,65.0,56.0,30.16,North,11,3.0,7.0,74,0.00,,,0.00,,2013-03-16 06:32:00,
2013-03-16 02:42:00,65.0,56.0,30.16,North,11,3.0,7.0,74,0.00,,,0.00,,2013-03-16 06:42:00,
2013-03-16 02:52:00,65.0,56.0,30.15,NNE,22,2.0,6.0,74,0.00,,,0.00,,2013-03-16 06:52:00,
2013-03-16 03:02:00,65.0,56.0,30.15,North,8,3.0,6.0,74,0.00,,,0.00,,2013-03-16 07:02:00,
2013-03-16 03:12:00,65.0,56.0,30.15,North,8,3.0,6.0,74,0.00,,,0.00,,2013-03-16 07:12:00,
2013-03-16 03:22:00,65.0,56.0,30.15,NNE,18,3.0,6.0,74,0.00,,,0.00,,2013-03-16 07:22:00,
2013-03-16 03:32:00,65.0,56.0,30.14,NNE,18,3.0,8.0,73,0.00,,,0.00,,2013-03-16 07:32:00,
2013-03-16 03:42:00,65.0,56.0,30.14,NNE,18,3.0,8.0,73,0.00,,,0.00,,2013-03-16 07:42:00,
2013-03-16 03:52:00,65.0,56.0,30.14,North,8,4.0,6.0,73,0.00,,,0.00,,2013-03-16 07:52:00,
2013-03-16 04:03:00,65.0,56.0,30.14,NNE,33,4.0,6.0,73,0.00,,,0.00,,2013-03-16 08:03:00,
2013-03-16 04:12:00,65.0,56.0,30.14,NNE,33,4.0,6.0,73,0.00,,,0.00,,2013-03-16 08:12:00,
2013-03-16 04:23:00,65.0,56.0,30.14,NNE,12,4.0,7.0,74,0.00,,,0.00,,2013-03-16 08:23:00,
2013-03-16 04:32:00,65.0,56.0,30.14,North,355,4.0,8.0,74,0.00,,,0.00,,2013-03-16 08:32:00,
2013-03-16 04:42:00,65.0,56.0,30.14,North,355,4.0,8.0,74,0.00,,,0.00,,2013-03-16 08:42:00,
2013-03-16 04:52:00,65.0,57.0,30.13,North,8,5.0,9.0,75,0.00,,,0.00,,2013-03-16 08:52:00,
2013-03-16 05:02:00,65.0,57.0,30.14,North,9,4.0,10.0,75,0.00,,,0.00,,2013-03-16 09:02:00,
2013-03-16 05:12:00,65.0,57.0,30.14,North,9,4.0,10.0,75,0.00,,,0.00,,2013-03-16 09:12:00,
2013-03-16 05:22:00,65.0,56.0,30.13,NNE,14,5.0,8.0,74,0.00,,,0.00,,2013-03-16 09:22:00,
2013-03-16 05:33:00,65.0,56.0,30.13,North,360,6.0,8.0,74,0.00,,,0.00,,2013-03-16 09:33:00,
2013-03-16 05:42:00,65.0,56.0,30.13,North,360,6.0,8.0,74,0.00,,,0.00,,2013-03-16 09:42:00,
2013-03-16 05:53:00,65.0,58.0,30.13,North,6,6.0,11.0,77,0.00,,,0.00,,2013-03-16 09:53:00,
2013-03-16 06:03:00,65.0,58.0,30.13,North,349,5.0,11.0,77,0.00,,,0.00,,2013-03-16 10:03:00,
2013-03-16 06:12:00,65.0,58.0,30.13,North,349,5.0,11.0,77,0.00,,,0.00,,2013-03-16 10:12:00,
2013-03-16 06:23:00,65.0,58.0,30.14,North,7,6.0,9.0,77,0.00,,,0.00,,2013-03-16 10:23:00,
2013-03-16 06:32:00,65.0,58.0,30.14,NNW,338,6.0,10.0,77,0.00,,,0.00,,2013-03-16 10:32:00,
2013-03-16 06:42:00,65.0,58.0,30.14,NNW,338,6.0,10.0,77,0.00,,,0.00,,2013-03-16 10:42:00,
2013-03-16 06:53:00,65.0,58.0,30.14,NNW,343,5.0,8.0,78,0.00,,,0.00,,2013-03-16 10:53:00,
2013-03-16 07:03:00,65.0,58.0,30.15,North,8,6.0,10.0,78,0.00,,,0.00,,2013-03-16 11:03:00,
2013-03-16 07:12:00,65.0,58.0,30.15,North,8,6.0,10.0,78,0.00,,,0.00,,2013-03-16 11:12:00,
2013-03-16 07:22:00,65.0,58.0,30.15,North,349,7.0,12.0,79,0.00,,,0.00,,2013-03-16 11:22:00,
2013-03-16 07:32:00,64.0,57.0,30.15,North,1,6.0,12.0,79,0.00,,,0.00,,2013-03-16 11:32:00,
2013-03-16 07:43:00,64.0,57.0,30.15,North,1,6.0,12.0,79,0.00,,,0.00,,2013-03-16 11:43:00,
2013-03-16 07:53:00,64.0,58.0,30.15,North,11,6.0,11.0,80,0.00,,,0.00,,2013-03-16 11:53:00,
2013-03-16 08:02:00,64.0,58.0,30.16,North,10,6.0,10.0,81,0.00,,,0.00,,2013-03-16 12:02:00,
2013-03-16 08:12:00,64.0,58.0,30.16,North,10,6.0,10.0,81,0.00,,,0.00,,2013-03-16 12:12:00,
2013-03-16 08:22:00,64.0,58.0,30.16,North,2,6.0,10.0,80,0.00,,,0.00,,2013-03-16 12:22:00,
2013-03-16 08:32:00,65.0,59.0,30.16,North,4,5.0,10.0,80,0.00,,,0.00,,2013-03-16 12:32:00,
2013-03-16 08:42:00,65.0,59.0,30.16,North,4,5.0,10.0,80,0.00,,,0.00,,2013-03-16 12:42:00,
2013-03-16 08:53:00,65.0,58.0,30.17,NNE,14,7.0,11.0,77,0.00,,,0.00,,2013-03-16 12:53:00,
2013-03-16 09:02:00,66.0,58.0,30.17,NNE,12,7.0,12.0,76,0.00,,,0.00,,2013-03-16 13:02:00,
2013-03-16 09:12:00,66.0,58.0,30.17,NNE,12,7.0,12.0,76,0.00,,,0.00,,2013-03-16 13:12:00,
2013-03-16 09:22:00,67.0,59.0,30.17,North,9,6.0,11.0,75,0.00,,,0.00,,2013-03-16 13:22:00,
2013-03-16 09:32:00,67.0,58.0,30.18,North,5,6.0,10.0,74,0.00,,,0.00,,2013-03-16 13:32:00,
2013-03-16 09:42:00,67.0,58.0,30.18,North,5,6.0,10.0,74,0.00,,,0.00,,2013-03-16 13:42:00,
2013-03-16 09:53:00,67.0,58.0,30.18,NNE,13,5.0,11.0,73,0.00,,,0.00,,2013-03-16 13:53:00,
2013-03-16 10:03:00,67.0,57.0,30.19,North,359,6.0,12.0,71,0.00,,,0.00,,2013-03-16 14:03:00,
2013-03-16 10:12:00,67.0,57.0,30.19,North,359,6.0,12.0,71,0.00,,,0.00,,2013-03-16 14:12:00,
2013-03-16 10:22:00,69.0,58.0,30.19,NNE,23,8.0,14.0,69,0.00,,,0.00,,2013-03-16 14:22:00,
2013-03-16 10:32:00,69.0,58.0,30.19,North,353,7.0,12.0,68,0.00,,,0.00,,2013-03-16 14:32:00,
2013-03-16 10:42:00,69.0,58.0,30.19,North,353,7.0,12.0,68,0.00,,,0.00,,2013-03-16 14:42:00,
2013-03-16 10:52:00,71.0,58.0,30.19,ENE,73,4.0,14.0,63,0.00,,,0.00,,2013-03-16 14:52:00,
2013-03-16 11:03:00,71.0,59.0,30.19,NNE,24,4.0,13.0,67,0.00,,,0.00,,2013-03-16 15:03:00,
2013-03-16 11:13:00,71.0,59.0,30.19,NNE,24,4.0,13.0,67,0.00,,,0.00,,2013-03-16 15:13:00,
2013-03-16 11:23:00,72.0,60.0,30.18,North,11,7.0,13.0,65,0.00,,,0.00,,2013-03-16 15:23:00,
2013-03-16 11:33:00,72.0,58.0,30.19,NNE,25,6.0,11.0,62,0.00,,,0.00,,2013-03-16 15:33:00,
2013-03-16 11:43:00,72.0,58.0,30.19,NNE,25,6.0,11.0,62,0.00,,,0.00,,2013-03-16 15:43:00,
2013-03-16 11:53:00,73.0,58.0,30.18,NE,35,5.0,11.0,60,0.00,,,0.00,,2013-03-16 15:53:00,
2013-03-16 12:03:00,72.0,57.0,30.19,ENE,62,5.0,11.0,59,0.00,,,0.00,,2013-03-16 16:03:00,
2013-03-16 12:13:00,72.0,57.0,30.19,ENE,62,5.0,11.0,59,0.00,,,0.00,,2013-03-16 16:13:00,
2013-03-16 12:23:00,73.0,58.0,30.18,North,8,5.0,10.0,60,0.00,,,0.00,,2013-03-16 16:23:00,
2013-03-16 12:33:00,73.0,58.0,30.17,NNE,19,4.0,10.0,60,0.00,,,0.00,,2013-03-16 16:33:00,
2013-03-16 12:42:00,73.0,58.0,30.17,NNE,19,4.0,10.0,60,0.00,,,0.00,,2013-03-16 16:42:00,
2013-03-16 12:53:00,73.0,57.0,30.16,NE,36,6.0,10.0,58,0.00,,,0.00,,2013-03-16 16:53:00,
2013-03-16 13:03:00,73.0,58.0,30.16,ENE,57,6.0,9.0,59,0.00,,,0.00,,2013-03-16 17:03:00,
2013-03-16 13:13:00,73.0,58.0,30.16,ENE,57,6.0,9.0,59,0.00,,,0.00,,2013-03-16 17:13:00,
2013-03-16 13:23:00,73.0,58.0,30.16,NE,55,4.0,10.0,59,0.00,,,0.00,,2013-03-16 17:23:00,
2013-03-16 13:32:00,73.0,56.0,30.15,NNW,343,3.0,11.0,56,0.00,,,0.00,,2013-03-16 17:32:00,
2013-03-16 13:42:00,73.0,56.0,30.15,NNW,343,3.0,11.0,56,0.00,,,0.00,,2013-03-16 17:42:00,
2013-03-16 13:53:00,73.0,58.0,30.15,NE,51,5.0,11.0,60,0.00,,,0.00,,2013-03-16 17:53:00,
2013-03-16 14:02:00,74.0,57.0,30.14,East,97,8.0,12.0,55,0.00,,,0.00,,2013-03-16 18:02:00,
2013-03-16 14:13:00,74.0,57.0,30.14,East,97,8.0,12.0,55,0.00,,,0.00,,2013-03-16 18:13:00,
2013-03-16 14:23:00,74.0,56.0,30.14,ESE,109,5.0,13.0,54,0.00,,,0.00,,2013-03-16 18:23:00,
2013-03-16 14:33:00,73.0,56.0,30.14,East,82,8.0,12.0,55,0.00,,,0.00,,2013-03-16 18:33:00,
2013-03-16 14:43:00,73.0,56.0,30.14,East,82,8.0,12.0,55,0.00,,,0.00,,2013-03-16 18:43:00,
2013-03-16 14:53:00,74.0,57.0,30.13,East,89,7.0,13.0,55,0.00,,,0.00,,2013-03-16 18:53:00,
2013-03-16 15:02:00,74.0,58.0,30.12,East,95,8.0,13.0,57,0.00,,,0.00,,2013-03-16 19:02:00,
2013-03-16 15:12:00,74.0,58.0,30.12,East,95,8.0,13.0,57,0.00,,,0.00,,2013-03-16 19:12:00,
2013-03-16 15:22:00,73.0,56.0,30.11,East,86,10.0,15.0,55,0.00,,,0.00,,2013-03-16 19:22:00,
2013-03-16 15:32:00,73.0,57.0,30.11,ESE,106,8.0,14.0,57,0.00,,,0.00,,2013-03-16 19:32:00,
2013-03-16 15:42:00,73.0,57.0,30.11,ESE,106,8.0,14.0,57,0.00,,,0.00,,2013-03-16 19:42:00,
2013-03-16 15:53:00,73.0,57.0,30.10,East,85,8.0,13.0,58,0.00,,,0.00,,2013-03-16 19:53:00,
2013-03-16 16:02:00,73.0,57.0,30.10,East,83,7.0,14.0,58,0.00,,,0.00,,2013-03-16 20:02:00,
2013-03-16 16:12:00,73.0,57.0,30.10,East,83,7.0,14.0,58,0.00,,,0.00,,2013-03-16 20:12:00,
2013-03-16 16:22:00,72.0,57.0,30.10,East,101,9.0,12.0,60,0.00,,,0.00,,2013-03-16 20:22:00,
2013-03-16 16:33:00,72.0,58.0,30.09,ENE,70,7.0,12.0,62,0.00,,,0.00,,2013-03-16 20:33:00,
2013-03-16 16:42:00,72.0,58.0,30.09,ENE,70,7.0,12.0,62,0.00,,,0.00,,2013-03-16 20:42:00,
2013-03-16 16:52:00,72.0,58.0,30.10,East,93,8.0,14.0,61,0.00,,,0.00,,2013-03-16 20:52:00,
2013-03-16 17:02:00,72.0,57.0,30.10,ENE,76,6.0,14.0,60,0.00,,,0.00,,2013-03-16 21:02:00,
2013-03-16 17:12:00,72.0,57.0,30.10,ENE,76,6.0,14.0,60,0.00,,,0.00,,2013-03-16 21:12:00,
2013-03-16 17:23:00,72.0,58.0,30.10,East,84,5.0,12.0,62,0.00,,,0.00,,2013-03-16 21:23:00,
2013-03-16 17:33:00,71.0,57.0,30.10,East,82,6.0,13.0,61,0.00,,,0.00,,2013-03-16 21:33:00,
2013-03-16 17:43:00,71.0,57.0,30.10,East,82,6.0,13.0,61,0.00,,,0.00,,2013-03-16 21:43:00,
2013-03-16 17:53:00,72.0,57.0,30.10,East,95,7.0,13.0,60,0.00,,,0.00,,2013-03-16 21:53:00,
2013-03-16 18:03:00,71.0,57.0,30.10,ENE,73,6.0,11.0,61,0.00,,,0.00,,2013-03-16 22:03:00,
2013-03-16 18:13:00,71.0,57.0,30.10,ENE,73,6.0,11.0,61,0.00,,,0.00,,2013-03-16 22:13:00,
2013-03-16 18:23:00,72.0,59.0,30.10,East,93,8.0,12.0,63,0.00,,,0.00,,2013-03-16 22:23:00,
2013-03-16 18:33:00,71.0,58.0,30.09,East,94,7.0,9.0,63,0.00,,,0.00,,2013-03-16 22:33:00,
2013-03-16 18:42:00,71.0,58.0,30.09,East,94,7.0,9.0,63,0.00,,,0.00,,2013-03-16 22:42:00,
2013-03-16 18:53:00,70.0,56.0,30.09,ESE,105,6.0,11.0,61,0.00,,,0.00,,2013-03-16 22:53:00,
2013-03-16 19:02:00,70.0,57.0,30.10,East,89,2.0,8.0,64,0.00,,,0.00,,2013-03-16 23:02:00,
2013-03-16 19:13:00,70.0,57.0,30.10,East,89,2.0,8.0,64,0.00,,,0.00,,2013-03-16 23:13:00,
2013-03-16 19:23:00,70.0,58.0,30.10,East,92,4.0,8.0,65,0.00,,,0.00,,2013-03-16 23:23:00,
2013-03-16 19:33:00,70.0,58.0,30.10,ENE,66,5.0,8.0,65,0.00,,,0.00,,2013-03-16 23:33:00,
2013-03-16 19:42:00,70.0,58.0,30.10,ENE,66,5.0,8.0,65,0.00,,,0.00,,2013-03-16 23:42:00,
2013-03-16 19:53:00,70.0,59.0,30.10,East,87,5.0,8.0,67,0.00,,,0.00,,2013-03-16 23:53:00,
2013-03-16 20:02:00,69.0,58.0,30.10,East,100,5.0,10.0,67,0.00,,,0.00,,2013-03-17 00:02:00,
2013-03-16 20:12:00,69.0,58.0,30.10,East,100,5.0,10.0,67,0.00,,,0.00,,2013-03-17 00:12:00,
2013-03-16 20:22:00,69.0,57.0,30.10,ENE,78,4.0,8.0,66,0.00,,,0.00,,2013-03-17 00:22:00,
2013-03-16 20:33:00,70.0,59.0,30.10,ESE,109,6.0,10.0,67,0.00,,,0.00,,2013-03-17 00:33:00,
2013-03-16 20:42:00,70.0,59.0,30.10,ESE,109,6.0,10.0,67,0.00,,,0.00,,2013-03-17 00:42:00,
2013-03-16 20:52:00,70.0,59.0,30.10,ENE,61,6.0,12.0,67,0.00,,,0.00,,2013-03-17 00:52:00,
2013-03-16 21:02:00,70.0,58.0,30.10,ENE,70,6.0,11.0,65,0.00,,,0.00,,2013-03-17 01:02:00,
2013-03-16 21:12:00,70.0,58.0,30.10,ENE,70,6.0,11.0,65,0.00,,,0.00,,2013-03-17 01:12:00,
2013-03-16 21:22:00,70.0,58.0,30.10,East,79,7.0,12.0,66,0.00,,,0.00,,2013-03-17 01:22:00,
2013-03-16 21:32:00,70.0,58.0,30.10,East,91,9.0,14.0,65,0.00,,,0.00,,2013-03-17 01:32:00,
2013-03-16 21:42:00,70.0,58.0,30.10,East,91,9.0,14.0,65,0.00,,,0.00,,2013-03-17 01:42:00,
2013-03-16 21:53:00,70.0,58.0,30.11,East,87,6.0,14.0,65,0.00,,,0.00,,2013-03-17 01:53:00,
2013-03-16 22:03:00,70.0,58.0,30.11,ESE,114,8.0,11.0,66,0.00,,,0.00,,2013-03-17 02:03:00,
2013-03-16 22:13:00,70.0,58.0,30.11,ESE,114,8.0,11.0,66,0.00,,,0.00,,2013-03-17 02:13:00,
2013-03-16 22:22:00,70.0,59.0,30.11,East,91,9.0,14.0,67,0.00,,,0.00,,2013-03-17 02:22:00,
2013-03-16 22:33:00,70.0,58.0,30.12,East,99,8.0,14.0,65,0.00,,,0.00,,2013-03-17 02:33:00,
2013-03-16 22:43:00,70.0,58.0,30.12,East,99,8.0,14.0,65,0.00,,,0.00,,2013-03-17 02:43:00,
2013-03-16 22:53:00,70.0,58.0,30.12,East,86,10.0,13.0,66,0.00,,,0.00,,2013-03-17 02:53:00,
2013-03-16 23:03:00,70.0,59.0,30.12,East,97,7.0,12.0,68,0.00,,,0.00,,2013-03-17 03:03:00,
2013-03-16 23:12:00,70.0,59.0,30.12,East,97,7.0,12.0,68,0.00,,,0.00,,2013-03-17 03:12:00,
2013-03-16 23:23:00,70.0,59.0,30.12,East,91,11.0,15.0,68,0.00,,,0.00,,2013-03-17 03:23:00,
2013-03-16 23:34:00,70.0,59.0,30.12,East,89,5.0,16.0,68,0.00,,,0.00,,2013-03-17 03:34:00,
2013-03-16 23:43:00,70.0,59.0,30.12,East,89,5.0,16.0,68,0.00,,,0.00,,2013-03-17 03:43:00,
2013-03-16 23:53:00,70.0,59.0,30.12,East,96,9.0,15.0,69,0.00,,,0.00,,2013-03-17 03:53:00,